Location: Luz Observatory
(34.5000°N, 117.2833°W)
Time: 22:29:53
(UTC-08:00)

Daily predictions for brighter satellites

Satellite Brightness Start Highest point End
(mag) Time Altitude Azimuth Time Altitude Azimuth Time Altitude Azimuth
SMAP 3.3 16:59:56 10° SSE 17:04:24 49° ENE 17:08:53 10° N
Cosmos 1455 Rocket 3.8 17:01:25 10° NNE 17:05:24 32° ENE 17:09:19 10° SE
Cosmos 1932 4.5 17:02:18 10° NNW 17:08:39 70° ENE 17:14:50 10° SE
Cosmos 1656 4.4 17:04:09 10° SSE 17:09:04 33° ESE 17:13:58 10° NE
Meteor 1-13 Rocket 4.4 17:04:03 10° SSE 17:09:23 50° E 17:14:50 10° NNE
Cosmos 1544 Rocket 4.0 17:05:21 10° N 17:09:26 39° E 17:13:28 10° SSE
Meteor 2-4 Rocket 4.2 17:04:32 10° SSE 17:09:32 37° E 17:14:26 10° NNE
YAOGAN 1 3.5 17:06:55 10° SE 17:10:34 27° ENE 17:14:13 10° NNE
Delta 2 Rocket 4.0 17:10:35 10° W 17:16:16 81° N 17:21:27 10° E
ALOS 3.6 17:13:51 10° ESE 17:16:59 18° ENE 17:20:08 10° NNE
Cosmos 1607 4.3 17:12:01 10° NNW 17:18:29 74° WSW 17:24:50 10° SSE
Hubble Space Telescope 2.1 17:16:18 10° WSW 17:20:05 35° S 17:23:53 10° ESE
CSL-04 Debris 4.1 17:14:47 10° SSE 17:20:10 80° ENE 17:25:34 10° N
SJ-7 4.4 17:16:09 10° SSE 17:20:10 90° WSW 17:24:11 10° NNW
IRAS Rocket 4.3 17:15:00 10° SSE 17:20:28 90° ENE 17:25:59 10° NNW
Ariane Rocket 2.9 17:16:19 10° SSE 17:21:23 79° ENE 17:26:27 10° N
Cosmos 1428 Rocket 4.5 17:15:50 10° N 17:22:01 85° E 17:28:08 10° S
USA 116 3.2 17:19:14 10° NNE 17:22:20 56° E 17:25:22 10° S
Cosmos 389 Rocket 2.3 17:20:16 10° N 17:23:44 85° E 17:27:10 10° S
Cosmos 2369 3.9 17:18:55 10° S 17:24:24 55° ESE 17:29:57 10° NNE
Cosmos 2278 3.9 17:20:19 10° S 17:25:47 53° ESE 17:31:19 10° NNE
COSMO-SKYMED 1 3.0 17:24:41 10° NNE 17:28:48 41° E 17:32:54 10° S
Cosmos 1125 Rocket 3.6 17:26:51 10° S 17:32:04 60° ESE 17:37:17 10° NNE
Meteor 1-28 Rocket 3.6 17:28:34 10° N 17:32:17 66° WNW 17:36:02 10° SSW
ISS -2.6 17:31:54 10° NNW 17:34:40 24° NE 17:36:03 18° ENE
Meteor 1-19 Rocket 4.4 17:29:25 10° S 17:35:04 82° W 17:40:51 10° N
EO 1 Del DPAF 3.8 17:32:09 10° NNE 17:35:42 37° E 17:39:15 10° SSE
SJ 16-02 1.4 17:31:40 10° S 17:35:57 59° ESE 17:40:17 10° NNE
Cosmos 1743 3.0 17:35:19 10° N 17:39:11 71° W 17:43:03 10° S
CSL-04 Rocket 4.4 17:34:33 10° S 17:39:51 59° WSW 17:45:16 10° NNW
FENGYUN 3A 4.2 17:36:18 10° SE 17:41:05 34° ENE 17:45:53 10° N
Gbstr 26 Del rocket 4.5 17:35:05 10° SW 17:43:12 79° SE 17:49:22 16° NE
BREEZE-M DEB (TANK) 3.1 17:40:03 10° NW 17:43:12 59° NE 17:53:40 10° ESE
Cosmos 1048 Rocket 4.4 17:39:55 10° N 17:44:58 40° ENE 17:49:58 10° SE
PSLV R/B 4.1 17:43:37 10° W 17:46:32 34° NNW 17:47:56 22° NE
METEOR-M 4.1 17:41:40 10° SSE 17:46:56 67° ENE 17:52:15 10° N
Cosmos 1697 Rocket 2.9 17:43:06 10° S 17:48:30 49° ESE 17:53:01 15° NE
USA 238 DEB 3.7 17:48:41 10° NNW 17:55:48 67° ENE 18:02:56 10° SE
DELTA 2 R/B (1) 4.0 17:50:27 10° WNW 17:55:51 50° N 17:58:57 24° ENE
USA 238 3.7 17:48:47 10° NNW 17:55:53 66° ENE 18:03:02 10° SE
Cosmos 372 Rocket 4.1 17:52:22 10° SSW 17:57:35 80° WNW 18:02:47 10° NNE
MOS 1 4.2 17:52:01 10° SSE 17:57:38 66° ENE 18:03:16 10° N
Landsat 4 4.2 17:55:15 10° N 17:59:02 60° WNW 18:02:46 10° SSW
Cosmos 2082 3.7 17:54:54 10° NNW 18:00:26 57° ENE 18:05:57 10° SE
Cosmos 1536 Rocket 4.2 17:57:44 10° SSW 18:02:01 56° W 18:06:18 10° N
Cosmos 1025 Rocket 3.2 17:59:06 10° SSE 18:03:14 46° E 18:05:20 25° NNE
Cosmos 1241 Rocket 4.4 17:58:10 10° SSW 18:04:32 71° ESE 18:09:09 19° NE
ERS-2 1.9 18:04:22 10° SSE 18:08:00 76° ENE 18:11:40 10° N
Cosmos 2227 Rocket 2.2 18:08:03 10° NNW 18:13:45 84° WSW 18:19:23 10° SSE
MONITOR-E 4.3 18:11:16 10° S 18:14:17 71° WSW 18:17:20 10° NNW
Meteor 1-23 Rocket 4.4 18:09:57 10° S 18:15:43 79° W 18:21:28 10° N
GOES 2 Rocket 4.1 18:12:20 10° WSW 18:16:36 42° S 18:19:09 25° SE
SKYMED 2 4.4 18:12:40 10° N 18:16:52 50° WNW 18:21:03 10° SSW
Atlas Centaur 2 2.6 18:14:54 10° W 18:19:37 40° SSW 18:21:33 25° SE
RESURS DK-1 4.0 18:19:19 10° SSE 18:21:11 21° SE 18:21:11 21° SE
Cosmos 1066 Rocket 4.4 18:20:04 10° SSE 18:25:18 43° E 18:25:35 43° E
NOSS 3-2 (A) 4.0 18:18:23 10° NNW 18:26:00 63° ENE 18:34:12 10° SE
Cosmos 2084 3.1 18:23:10 10° SSW 18:27:26 79° ESE 18:27:47 71° ENE
Cosmos 724 4.1 18:21:38 10° NNW 18:27:27 77° ENE 18:33:16 10° SSE
Cosmos 1980 Rocket 2.1 18:22:58 10° S 18:28:33 63° ESE 18:30:15 43° NE
NOSS 3-2 (C) 4.1 18:24:52 10° NNW 18:32:21 53° NE 18:36:33 29° ESE
CZ-4 R/B 4.3 18:31:41 10° SW 18:34:11 17° W 18:36:43 10° NW
OAO 1 Rocket 4.3 18:32:42 10° W 18:38:03 84° N 18:38:49 66° ENE
SPOT 3 Rocket 4.0 18:34:35 10° S 18:39:42 61° WSW 18:44:50 10° NNW
Cosmos 2297 Rocket 2.8 18:35:07 10° NNW 18:40:40 57° WSW 18:46:10 10° S
H-2A R/B 3.2 18:38:27 10° SW 18:39:52 26° S 18:39:52 26° S
ATLAS 3B R/B 3.1 18:37:01 10° NW 18:43:28 58° WSW 18:49:47 10° SSE
S3M 3.8 18:46:55 10° S 18:52:39 64° ESE 18:52:39 64° ESE
ALOS 3.7 18:49:47 10° SSW 18:54:06 37° W 18:58:26 10° NNW
NOSS 3-4 (A) 4.1 18:50:07 10° SW 18:56:08 51° NW 18:58:48 32° N
NOSS 3-4 (C) 4.1 18:50:12 10° SW 18:56:13 52° NW 18:58:51 32° N
Thor Agena Rocket 3.5 18:56:21 78° N 18:56:42 85° WNW 19:01:58 10° SSW
Delta 2 Rocket 4.2 18:53:42 10° W 18:58:55 57° SSW 18:58:55 57° SSW
Hubble Space Telescope 2.8 18:57:36 10° WSW 19:00:29 23° SSW 19:00:29 23° SSW
SL-16 R/B 4.1 19:01:54 10° S 19:03:07 16° SSE 19:03:07 16° SSE
Cosmos 2344 3.9 19:03:01 10° S 19:09:06 45° SE 19:09:06 45° SE
ISS -0.6 19:08:18 10° WNW 19:08:47 13° WNW 19:08:47 13° WNW
Cosmos 2322 Rocket 4.2 19:08:20 10° S 19:09:19 15° S 19:09:19 15° S
SJ 16-02 4.4 19:14:11 10° WNW 19:14:56 10° WNW 19:15:41 10° NW
CENTAUR R/B 3.9 19:18:26 10° NNW 19:23:13 36° N 19:23:13 36° N
